#timestamp,LO_Frequency,Hit,StdDev 
1510981215.5,286046987.3,N
1510981235.3,286046987.3,N
1510981255.2,286046990.4,N
1510981275.9,286046988.9,N
1510981295.7,286046987.5,N
1510981315.5,286046988.8,N
1510981335.4,286046992.0,N
1510981355.2,286046992.7,N
1510981375.0,286046994.6,N
1510981375.9,286046994.6,N
1510981395.8,286046987.0,N
1510981415.6,286046985.7,N
1510981435.4,286046986.4,N
1510981455.3,286046982.9,Y
1510981475.1,286046993.8,P
1510981495.8,286046995.8,N
1510981515.7,286046993.8,N
1510981535.5,286046994.8,N
1510981555.3,286046999.3,N
1510981575.2,286046999.5,N
1510981595.9,286046994.8,N
1510981615.7,286046994.7,N
1510981635.6,286046994.0,N
1510981655.4,286046992.6,N
1510981675.2,286046989.8,Y
1510981695.1,286046992.5,P
1510981696.0,286046992.5,P
1510981715.8,286046996.0,P
1510981735.6,286046999.1,N
1510981755.4,286046995.2,N
1510981775.3,286046996.6,N
1510981795.1,286047000.2,N
1510981815.8,286047000.3,N
1510981835.7,286046995.2,N
1510981855.5,286047000.6,N
1510981875.3,286047008.4,N
1510981895.2,286047004.5,N
1510981915.9,286047001.9,N
1510981935.7,286047000.5,N
1510981955.6,286046998.7,N
1510981975.4,286046991.9,N
1510981995.2,286046994.6,N
1510982015.0,286046994.2,N
1510982016.0,286046994.2,N
1510982035.8,286047000.8,N
1510982055.6,286046996.8,N
1510982075.4,286046998.2,N
1510982095.3,286047003.5,N
1510982115.1,286047005.7,N
1510982135.8,286047003.3,N
1510982155.7,286047009.5,N
1510982175.5,286047011.5,N
1510982195.3,286047006.4,N
1510982215.2,286047010.8,N
1510982235.9,286047011.5,N
1510982255.7,286047011.3,N
1510982275.6,286047011.1,N
1510982295.4,286047012.4,N
1510982315.2,286047008.5,N
1510982335.0,286047004.4,N
1510982336.0,286047004.4,N
1510982355.8,286047001.9,N
1510982375.6,286047000.6,N
1510982395.4,286046999.0,N
1510982415.3,286046998.0,N
1510982435.1,286046994.0,N
1510982455.8,286046994.5,N
1510982475.7,286046997.8,N
1510982495.5,286046995.9,N
1510982515.3,286046992.2,N
1510982535.2,286046990.5,N
1510982555.9,286046992.1,N
1510982575.7,286046990.5,N
1510982595.6,286046990.3,N
1510982615.4,286046990.8,N
1510982635.2,286046988.9,N
1510982655.0,286046986.6,N
1510982656.0,286046986.6,N
1510982675.8,286046982.7,N
1510982695.6,286046979.7,N
1510982715.4,286046980.6,N
1510982735.3,286046982.1,N
1510982755.1,286046986.4,N
1510982775.8,286046984.9,N
1510982795.7,286046983.4,N
1510982815.5,286046979.9,N
1510982835.3,286046979.5,N
1510982855.2,286046978.8,N
1510982875.9,286046974.3,Y
1510982895.7,286046980.7,P
1510982915.6,286046983.5,P
1510982935.4,286046988.9,N
1510982955.2,286046989.2,N
1510982975.1,286046986.4,Y
1510982976.0,286046986.4,P
1510982995.8,286046996.4,P
1510983015.6,286046995.1,N
1510983035.5,286046992.4,N
1510983055.3,286046994.0,N
1510983075.1,286046994.8,N
1510983095.9,286046999.0,N
1510983115.7,286046996.7,N
1510983135.5,286046993.4,N
1510983155.4,286046994.9,N
1510983175.2,286046996.6,N
1510983195.0,286046996.9,N
1510983195.9,286046996.9,N
1510983215.8,286046999.0,N
1510983235.6,286046998.5,N
1510983255.4,286047000.0,N
1510983275.2,286047006.0,N
1510983295.1,286047009.1,N
1510983296.0,286047009.1,N
1510983315.8,286047009.9,N
1510983335.6,286047009.6,N
1510983355.5,286047006.6,N
1510983375.3,286047009.1,N
1510983395.1,286047002.3,N
1510983415.9,286046999.8,N
1510983435.7,286047002.5,N
1510983455.5,286046997.3,N
1510983475.4,286046997.5,N
1510983495.2,286046993.3,N
1510983515.0,286046997.8,N
1510983515.9,286046997.8,N
1510983535.8,286047002.1,N
1510983555.6,286047010.6,N
1510983575.4,286047013.2,N
1510983595.2,286047013.1,N
1510983615.1,286047017.6,N
1510983616.0,286047017.6,N
1510983635.8,286047026.0,Y
1510983655.7,286047028.8,P
1510983675.5,286047032.9,N
1510983695.3,286047035.8,N
1510983715.2,286047042.7,Y
1510983735.9,286047019.2,P
1510983755.7,286047029.2,P
1510983775.5,286047035.2,P
1510983795.4,286047043.6,Y
1510983815.2,286047027.0,P
1510983835.0,286047028.5,P
1510983836.0,286047028.5,P
1510983855.8,286047039.5,Y
1510983875.6,286047012.9,P
1510983895.5,286047019.4,N
1510983915.3,286047021.3,P
1510983935.1,286047022.0,Y
1510983955.9,286047007.1,P
1510983975.7,286047011.9,N
1510983995.5,286047013.4,N
1510984015.4,286047014.7,Y
1510984035.2,286047007.2,P
1510984055.0,286047006.8,N
1510984055.9,286047006.8,N
1510984075.8,286047006.4,N
1510984095.6,286047016.5,Y
1510984115.4,286047014.5,P
1510984135.3,286047016.6,P
1510984155.1,286047020.0,P
1510984156.0,286047020.0,Y
1510984175.8,286047007.7,P
1510984195.7,286047009.6,N
1510984215.5,286047011.1,P
1510984235.3,286047009.5,Y
1510984255.2,286047002.5,P
1510984275.9,286047007.2,N
1510984295.7,286047010.1,N
1510984315.6,286047015.2,Y
1510984335.4,286047013.3,P
1510984355.2,286047016.0,P
1510984375.1,286047017.5,P
1510984376.0,286047017.5,Y
1510984395.8,286047010.2,P
1510984415.6,286047012.1,P
1510984435.5,286047012.9,P
1510984455.3,286047011.1,Y
1510984475.1,286047003.6,P
1510984495.9,286047006.3,N
1510984515.7,286047006.5,N
1510984535.5,286047006.3,N
1510984555.4,286047008.9,Y
1510984575.2,286047005.5,P
1510984595.0,286047008.4,P
1510984595.9,286047008.4,P
1510984615.8,286047006.8,Y
1510984635.6,286047000.0,P
1510984655.4,286047003.1,N
1510984675.3,286047004.5,N
1510984695.1,286047006.7,N
1510984696.0,286047006.7,N
1510984715.8,286047005.6,N
1510984735.7,286047006.5,N
1510984755.5,286047005.7,N
1510984775.3,286047005.0,N
1510984795.1,286047003.9,N
